Location: Newark
(47.5833°N, 8.1500°E)
Time: 15:46:43
(UTC+00:00)

Tiros 1 - Pass Details

Date: 03 November 2020
Orbit: 630 x 664 km, 48.4° (Epoch: 29 November)

Event Time Altitude Azimuth Distance (km) Brightness Sun altitude
Exits shadow 05:04:04 18° 281° (W) 1,542 8.4 -12.3°
Maximum altitude 05:07:26 73° 199° (SSW) 661 7.1 -11.8°
Drops below altitude 10° 05:12:02 10° 115° (ESE) 2,005 11.1 -11.0°
Sets 05:14:21 0° 113° (ESE) 2,913 12.4 -10.6°
